* Astronomy

Members Login
Username 
 
Password 
    Remember Me  
Post Info TOPIC: Asteroid 2011 YY62


L

Posts: 131433
Date:
Asteroid 2011 YY62
Permalink  
 


Orbital elements:
2011 YY62                                                Earth MOID = 0.0035 AU
Epoch 2012 Mar. 14.0 TT = JDT 2456000.5                 MPC
M  30.70135              (2000.0)            P               Q
n   0.25367329     Peri.  127.19899     +0.84283468     -0.53028333
a   2.4714560      Node   264.99900     +0.45994724     +0.79834243
e   0.6596075      Incl.    5.28800     +0.27942483     +0.28539262
P   3.89           H   22.8           G   0.15           U   7

MPEC 2012 - A10



__________________
Page 1 of 1  sorted by
 
Quick Reply

Please log in to post quick replies.



Create your own FREE Forum
Report Abuse
Powered by ActiveBoard